When you browse on this site, cookies collect data to enhance your experience and personalize the content and advertising you see.
Visit our Privacy Policy to learn more. By continuing to use the site, you agree to this use of cookies and data.
  • In Lithuania
  • List of Countries
  • For 7 days
  • Water Temperature
  • Satellite Maps
  • Weather Map
  • Weather Widgets
  • user-avatar
    Login

    Hourly Weather Aba-el-Baul

    Today, 16 July, Tuesday

    Time Temperature Precipitation Wind Pressure Humidity
    00:00 +34°C° 0 mm 4 mps 743 mmHg 38%
    01:00 +34°C° 0 mm 4 mps 743 mmHg 35%
    02:00 +34°C° 0 mm 4 mps 742 mmHg 32%
    03:00 +34°C° 0 mm 4 mps 742 mmHg 30%
    04:00 +34°C° 0 mm 4 mps 743 mmHg 28%
    05:00 +34°C° 0 mm 5 mps 743 mmHg 27%
    06:00 +35°C° 0 mm 5 mps 744 mmHg 25%
    07:00 +38°C° 0 mm 6 mps 744 mmHg 21%
    08:00 +41°C° 0 mm 7 mps 744 mmHg 17%
    09:00 +45°C° 0 mm 8 mps 744 mmHg 14%
    10:00 +46°C° 0 mm 8 mps 744 mmHg 12%
    11:00 +49°C° 0 mm 8 mps 743 mmHg 11%
    12:00 +50°C° 0 mm 9 mps 743 mmHg 10%
    13:00 +50°C° 0 mm 9 mps 743 mmHg 9%
    14:00 +50°C° 0 mm 9 mps 743 mmHg 9%
    15:00 +50°C° 0 mm 9 mps 742 mmHg 8%
    16:00 +48°C° 0 mm 8 mps 742 mmHg 9%
    17:00 +45°C° 0 mm 7 mps 742 mmHg 11%
    18:00 +43°C° 0 mm 5 mps 742 mmHg 12%
    19:00 +40°C° 0 mm 4 mps 743 mmHg 16%
    20:00 +37°C° 0 mm 3 mps 743 mmHg 20%
    21:00 +35°C° 0 mm 3 mps 743 mmHg 24%
    22:00 +35°C° 0 mm 3 mps 743 mmHg 27%
    23:00 +35°C° 0 mm 3 mps 743 mmHg 29%

    Tomorrow, 17 July, Wednesday

    Time Temperature Precipitation Wind Pressure Humidity
    00:00 +35°C° 0 mm 3 mps 743 mmHg 32%
    01:00 +35°C° 0 mm 4 mps 743 mmHg 35%
    02:00 +35°C° 0 mm 4 mps 743 mmHg 39%
    03:00 +34°C° 0 mm 5 mps 743 mmHg 42%
    04:00 +35°C° 0 mm 5 mps 743 mmHg 42%
    05:00 +35°C° 0 mm 6 mps 744 mmHg 43%
    06:00 +35°C° 0 mm 6 mps 744 mmHg 44%
    07:00 +39°C° 0 mm 7 mps 744 mmHg 34%
    08:00 +43°C° 0 mm 9 mps 744 mmHg 25%
    09:00 +47°C° 0 mm 10 mps 744 mmHg 15%
    10:00 +48°C° 0 mm 10 mps 744 mmHg 14%
    11:00 +48°C° 0 mm 10 mps 744 mmHg 13%
    12:00 +49°C° 0 mm 10 mps 744 mmHg 12%
    13:00 +49°C° 0 mm 11 mps 744 mmHg 12%
    14:00 +48°C° 0 mm 11 mps 744 mmHg 12%
    15:00 +48°C° 0 mm 11 mps 744 mmHg 12%
    16:00 +47°C° 0 mm 9 mps 744 mmHg 13%
    17:00 +44°C° 0 mm 8 mps 744 mmHg 14%
    18:00 +42°C° 0 mm 6 mps 744 mmHg 15%
    19:00 +40°C° 0 mm 5 mps 744 mmHg 19%
    20:00 +37°C° 0 mm 4 mps 744 mmHg 23%
    21:00 +35°C° 0 mm 3 mps 745 mmHg 27%
    22:00 +34°C° 0 mm 3 mps 744 mmHg 31%
    23:00 +34°C° 0 mm 3 mps 744 mmHg 35%

    Day after tomorrow, 18 July, Thursday

    Time Temperature Precipitation Wind Pressure Humidity
    00:00 +33°C° 0 mm 3 mps 744 mmHg 39%
    01:00 +33°C° 0 mm 3 mps 744 mmHg 40%
    02:00 +33°C° 0 mm 3 mps 744 mmHg 40%
    03:00 +33°C° 0 mm 4 mps 743 mmHg 41%
    04:00 +34°C° 0 mm 4 mps 744 mmHg 44%
    05:00 +34°C° 0 mm 4 mps 744 mmHg 47%
    06:00 +34°C° 0 mm 5 mps 744 mmHg 49%
    07:00 +38°C° 0 mm 6 mps 745 mmHg 40%
    08:00 +41°C° 0 mm 7 mps 745 mmHg 30%
    09:00 +45°C° 0 mm 8 mps 745 mmHg 20%
    10:00 +46°C° 0 mm 8 mps 745 mmHg 18%
    11:00 +48°C° 0 mm 8 mps 745 mmHg 16%
    12:00 +49°C° 0 mm 8 mps 744 mmHg 13%
    13:00 +49°C° 0 mm 8 mps 744 mmHg 13%
    14:00 +49°C° 0 mm 8 mps 744 mmHg 12%
    15:00 +49°C° 0 mm 7 mps 743 mmHg 11%
    16:00 +47°C° 0 mm 6 mps 743 mmHg 12%
    17:00 +45°C° 0 mm 6 mps 743 mmHg 14%
    18:00 +43°C° 0 mm 5 mps 743 mmHg 15%
    19:00 +40°C° 0 mm 4 mps 743 mmHg 19%
    20:00 +37°C° 0 mm 3 mps 744 mmHg 23%
    21:00 +35°C° 0 mm 3 mps 744 mmHg 27%
    22:00 +34°C° 0 mm 2 mps 744 mmHg 28%
    23:00 +32°C° 0 mm 1 mps 743 mmHg 30%

    19 July, Friday

    Time Temperature Precipitation Wind Pressure Humidity
    00:00 +31°C° 0 mm 1 mps 743 mmHg 31%
    01:00 +31°C° 0 mm 1 mps 743 mmHg 31%
    02:00 +30°C° 0 mm 1 mps 743 mmHg 32%
    03:00 +30°C° 0 mm 1 mps 743 mmHg 32%
    04:00 +31°C° 0 mm 1 mps 743 mmHg 31%
    05:00 +32°C° 0 mm 2 mps 744 mmHg 30%
    06:00 +34°C° 0 mm 2 mps 744 mmHg 29%
    07:00 +37°C° 0 mm 3 mps 744 mmHg 26%
    08:00 +40°C° 0 mm 4 mps 744 mmHg 23%
    09:00 +43°C° 0 mm 5 mps 744 mmHg 20%
    10:00 +45°C° 0 mm 5 mps 744 mmHg 18%
    11:00 +47°C° 0 mm 5 mps 744 mmHg 16%
    12:00 +48°C° 0 mm 6 mps 743 mmHg 14%
    13:00 +48°C° 0 mm 5 mps 743 mmHg 14%
    14:00 +48°C° 0 mm 5 mps 742 mmHg 14%
    15:00 +48°C° 0 mm 5 mps 742 mmHg 14%
    16:00 +45°C° 0 mm 4 mps 742 mmHg 18%
    17:00 +43°C° 0 mm 4 mps 742 mmHg 22%
    18:00 +40°C° 0 mm 3 mps 742 mmHg 25%
    19:00 +38°C° 0 mm 3 mps 742 mmHg 30%
    20:00 +37°C° 0 mm 3 mps 743 mmHg 35%
    21:00 +35°C° 0 mm 3 mps 743 mmHg 40%
    22:00 +34°C° 0 mm 2 mps 743 mmHg 42%
    23:00 +34°C° 0 mm 2 mps 743 mmHg 43%

    20 July, Saturday

    Time Temperature Precipitation Wind Pressure Humidity
    00:00 +32°C° 0 mm 1 mps 743 mmHg 44%
    01:00 +31°C° 0 mm 1 mps 743 mmHg 47%
    02:00 +30°C° 0 mm 1 mps 743 mmHg 50%
    03:00 +30°C° 0 mm 1 mps 743 mmHg 53%
    04:00 +30°C° 0 mm 1 mps 743 mmHg 49%
    05:00 +31°C° 0 mm 2 mps 743 mmHg 46%
    06:00 +32°C° 0 mm 2 mps 744 mmHg 43%
    07:00 +36°C° 0 mm 2 mps 744 mmHg 36%
    08:00 +38°C° 0 mm 2 mps 745 mmHg 30%
    09:00 +41°C° 0 mm 2 mps 745 mmHg 23%
    10:00 +43°C° 0 mm 3 mps 745 mmHg 21%
    11:00 +45°C° 0 mm 3 mps 744 mmHg 20%
    12:00 +47°C° 0 mm 4 mps 744 mmHg 18%
    13:00 +47°C° 0 mm 3 mps 744 mmHg 19%
    14:00 +47°C° 0 mm 3 mps 743 mmHg 19%
    15:00 +47°C° 0 mm 2 mps 743 mmHg 19%
    16:00 +45°C° 0 mm 3 mps 743 mmHg 23%
    17:00 +43°C° 0 mm 4 mps 743 mmHg 27%
    18:00 +41°C° 0 mm 5 mps 743 mmHg 31%
    19:00 +40°C° 0 mm 4 mps 744 mmHg 35%
    20:00 +37°C° 0 mm 3 mps 744 mmHg 38%
    21:00 +36°C° 0 mm 2 mps 745 mmHg 41%
    22:00 +35°C° 0 mm 2 mps 744 mmHg 40%
    23:00 +35°C° 0 mm 2 mps 744 mmHg 40%

    21 July, Sunday

    Time Temperature Precipitation Wind Pressure Humidity
    00:00 +35°C° 0 mm 2 mps 744 mmHg 39%
    01:00 +34°C° 0 mm 3 mps 743 mmHg 42%
    02:00 +34°C° 0 mm 3 mps 743 mmHg 46%
    03:00 +33°C° 0 mm 4 mps 743 mmHg 49%
    04:00 +34°C° 0 mm 3 mps 743 mmHg 46%
    05:00 +34°C° 0 mm 3 mps 744 mmHg 44%
    06:00 +35°C° 0 mm 2 mps 744 mmHg 41%
    07:00 +38°C° 0 mm 2 mps 744 mmHg 34%
    08:00 +42°C° 0 mm 3 mps 744 mmHg 27%
    09:00 +45°C° 0 mm 4 mps 745 mmHg 21%
    10:00 +48°C° 0 mm 4 mps 744 mmHg 17%
    11:00 +50°C° 0 mm 4 mps 744 mmHg 14%
    12:00 +53°C° 0 mm 5 mps 743 mmHg 11%
    13:00 +52°C° 0 mm 4 mps 743 mmHg 10%
    14:00 +52°C° 0 mm 4 mps 743 mmHg 10%
    15:00 +52°C° 0 mm 4 mps 742 mmHg 9%
    16:00 +50°C° 0 mm 4 mps 742 mmHg 14%
    17:00 +46°C° 0 mm 3 mps 742 mmHg 19%
    18:00 +43°C° 0 mm 3 mps 742 mmHg 24%
    19:00 +40°C° 0 mm 2 mps 742 mmHg 29%
    20:00 +39°C° 0 mm 2 mps 743 mmHg 35%
    21:00 +37°C° 0 mm 2 mps 743 mmHg 40%
    22:00 +37°C° 0 mm 2 mps 743 mmHg 38%
    23:00 +36°C° 0 mm 2 mps 742 mmHg 35%
    Show more